| time (UTC) | temp F | wind direction | speed knots | gust knots | rain 1hr in | rain 24hr in | rain mn in | humidity % | barometer mb |
| 20260504213938 | 77 | 234 | 0.9 | 1.7 | 0.00 | 0.02 | 0.02 | 50 | 1006.9 |
| 20260504213433 | 78 | 260 | 0.0 | 0.9 | 0.00 | 0.02 | 0.02 | 46 | 1007.2 |
| 20260504212931 | 78 | 266 | 2.6 | 4.3 | 0.00 | 0.02 | 0.02 | 48 | 1007.3 |
| 20260504212427 | 78 | 324 | 2.6 | 4.3 | 0.00 | 0.02 | 0.02 | 47 | 1007.2 |
| 20260504211925 | 78 | 251 | 0.9 | 0.9 | 0.00 | 0.02 | 0.02 | 47 | 1007.3 |
| 20260504211421 | 78 | 179 | 0.9 | 0.9 | 0.00 | 0.02 | 0.02 | 49 | 1007.3 |
| 20260504210918 | 78 | 101 | 0.0 | 0.0 | 0.00 | 0.02 | 0.02 | 47 | 1007.3 |
| 20260504210415 | 77 | 193 | 0.9 | 0.9 | 0.00 | 0.02 | 0.02 | 48 | 1007.6 |
| 20260504205912 | 79 | 268 | 0.9 | 0.9 | 0.00 | 0.02 | 0.02 | 50 | 1007.5 |
| 20260504205410 | 78 | 108 | 0.0 | 0.0 | 0.00 | 0.02 | 0.02 | 47 | 1007.4 |
| 20260504204908 | 77 | 252 | 0.9 | 0.9 | 0.00 | 0.02 | 0.02 | 47 | 1007.7 |
| 20260504204406 | 77 | 202 | 1.7 | 1.7 | 0.00 | 0.02 | 0.02 | 49 | 1007.9 |
| 20260504203905 | 76 | 272 | 1.7 | 1.7 | 0.00 | 0.02 | 0.02 | 50 | 1008.0 |
| 20260504203402 | 76 | 213 | 3.5 | 4.3 | 0.00 | 0.02 | 0.02 | 49 | 1007.9 |
| 20260504202857 | 77 | 288 | 4.3 | 6.1 | 0.00 | 0.02 | 0.02 | 51 | 1008.0 |
| 20260504202355 | 77 | 94 | 0.9 | 1.7 | 0.00 | 0.02 | 0.02 | 49 | 1008.0 |
| 20260504201851 | 77 | 262 | 3.5 | 5.2 | 0.00 | 0.02 | 0.02 | 49 | 1008.1 |
| 20260504201349 | 78 | 209 | 1.7 | 2.6 | 0.00 | 0.02 | 0.02 | 48 | 1008.1 |
| 20260504200846 | 76 | 27 | 0.0 | 0.9 | 0.00 | 0.02 | 0.02 | 49 | 1008.1 |
| 20260504200343 | 75 | 355 | 0.9 | 1.7 | 0.00 | 0.02 | 0.02 | 50 | 1008.3 |
| 20260504195839 | 76 | 279 | 3.5 | 5.2 | 0.00 | 0.02 | 0.02 | 51 | 1008.3 |
| 20260504195334 | 76 | 208 | 2.6 | 2.6 | 0.00 | 0.02 | 0.02 | 52 | 1008.5 |
| 20260504194832 | 75 | 315 | 2.6 | 2.6 | 0.00 | 0.02 | 0.02 | 51 | 1008.8 |
| 20260504194328 | 76 | 24 | 2.6 | 2.6 | 0.00 | 0.02 | 0.02 | 50 | 1008.8 |
| 20260504193824 | 76 | 249 | 2.6 | 2.6 | 0.00 | 0.02 | 0.02 | 51 | 1008.8 |
| 20260504193321 | 76 | 132 | 0.0 | 0.9 | 0.00 | 0.02 | 0.02 | 47 | 1008.8 |
| 20260504192820 | 75 | 218 | 2.6 | 2.6 | 0.00 | 0.02 | 0.02 | 53 | 1009.0 |
| 20260504192318 | 76 | 175 | 0.0 | 0.0 | 0.00 | 0.02 | 0.02 | 53 | 1009.1 |
| 20260504191816 | 76 | 169 | 0.9 | 1.7 | 0.00 | 0.02 | 0.02 | 55 | 1009.2 |
| 20260504191313 | 77 | 191 | 1.7 | 1.7 | 0.00 | 0.02 | 0.02 | 50 | 1009.1 |
| 20260504190808 | 76 | 178 | 0.9 | 0.9 | 0.00 | 0.02 | 0.02 | 52 | 1009.2 |
| 20260504190305 | 75 | 155 | 0.9 | 0.9 | 0.00 | 0.02 | 0.02 | 53 | 1009.4 |
| 20260504185801 | 74 | 216 | 1.7 | 1.7 | 0.00 | 0.02 | 0.02 | 53 | 1009.4 |
| 20260504185258 | 73 | 291 | 3.5 | 4.3 | 0.00 | 0.02 | 0.02 | 52 | 1009.5 |
| 20260504184754 | 73 | 348 | 2.6 | 2.6 | 0.00 | 0.02 | 0.02 | 52 | 1009.5 |
| 20260504184250 | 73 | 189 | 0.9 | 0.9 | 0.00 | 0.02 | 0.02 | 53 | 1009.8 |
| 20260504183746 | 72 | 329 | 1.7 | 2.6 | 0.00 | 0.02 | 0.02 | 52 | 1009.7 |
| 20260504183243 | 71 | 358 | 0.0 | 1.7 | 0.00 | 0.02 | 0.02 | 53 | 1009.8 |
| 20260504182741 | 73 | 356 | 2.6 | 2.6 | 0.00 | 0.02 | 0.02 | 52 | 1009.8 |
| 20260504182238 | 71 | 105 | 0.9 | 1.7 | 0.00 | 0.02 | 0.02 | 50 | 1009.8 |
| 20260504181736 | 71 | 343 | 3.5 | 4.3 | 0.00 | 0.02 | 0.02 | 52 | 1009.9 |
| 20260504181233 | 71 | 283 | 1.7 | 1.7 | 0.00 | 0.02 | 0.02 | 53 | 1010.1 |
| 20260504180732 | 70 | 244 | 1.7 | 2.6 | 0.00 | 0.02 | 0.02 | 55 | 1010.0 |
| 20260504180231 | 71 | 324 | 2.6 | 2.6 | 0.00 | 0.02 | 0.02 | 52 | 1010.1 |
| 20260504175728 | 70 | 302 | 3.5 | 4.3 | 0.00 | 0.02 | 0.02 | 55 | 1010.4 |
| 20260504175224 | 69 | 27 | 1.7 | 1.7 | 0.00 | 0.02 | 0.02 | 54 | 1010.4 |
| 20260504174723 | 70 | 341 | 0.9 | 1.7 | 0.00 | 0.02 | 0.02 | 53 | 1010.3 |
| 20260504174220 | 70 | 271 | 2.6 | 2.6 | 0.00 | 0.02 | 0.02 | 56 | 1010.4 |
| 20260504173716 | 71 | 63 | 0.9 | 0.9 | 0.00 | 0.02 | 0.02 | 51 | 1010.5 |
| 20260504173213 | 68 | 191 | 0.9 | 1.7 | 0.00 | 0.02 | 0.02 | 53 | 1010.6 |
| 20260504172710 | 67 | 214 | 2.6 | 2.6 | 0.00 | 0.02 | 0.02 | 54 | 1010.5 |
| 20260504172206 | 68 | 286 | 1.7 | 1.7 | 0.00 | 0.02 | 0.02 | 56 | 1010.6 |
| 20260504171703 | 68 | 283 | 1.7 | 1.7 | 0.00 | 0.02 | 0.02 | 55 | 1010.8 |
| 20260504171200 | 68 | 280 | 2.6 | 2.6 | 0.00 | 0.02 | 0.02 | 53 | 1011.0 |
| 20260504170656 | 68 | 133 | 0.0 | 0.0 | 0.00 | 0.02 | 0.02 | 58 | 1011.1 |
| 20260504170154 | 67 | 305 | 0.9 | 1.7 | 0.00 | 0.02 | 0.02 | 57 | 1011.4 |
| 20260504160112 | 62 | 82 | 1.7 | 1.7 | 0.00 | 0.02 | 0.02 | 62 | 1012.6 |
| 20260504151004 | 53 | 139 | 0.0 | 0.0 | 0.00 | 0.02 | 0.02 | 92 | 1012.9 |
| 20260504150502 | 53 | 106 | 0.0 | 0.0 | 0.00 | 0.02 | 0.02 | 93 | 1013.1 |
| 20260504141235 | 55 | 233 | 0.9 | 0.9 | 0.00 | 0.00 | 0.00 | 70 | 1014.0 |
| 20260504140731 | 56 | 203 | 1.7 | 1.7 | 0.00 | 0.00 | 0.00 | 71 | 1014.4 |
| 20260504140227 | 55 | 262 | 1.7 | 1.7 | 0.00 | 0.00 | 0.00 | 72 | 1014.3 |
| 20260504130656 | 51 | 122 | 0.0 | 0.0 | 0.00 | 0.00 | 0.00 | 78 | 1013.8 |
| 20260504130152 | 51 | 153 | 0.9 | 0.9 | 0.00 | 0.00 | 0.00 | 77 | 1013.5 |
| 20260504120116 | 47 | 249 | 0.0 | 0.0 | 0.00 | 0.00 | 0.00 | 87 | 1012.5 |
| 20260504110543 | 42 | 119 | 0.0 | 0.0 | 0.00 | 0.00 | 0.00 | 95 | 1012.3 |
| 20260504100505 | 41 | 104 | 0.0 | 0.0 | 0.00 | 0.00 | 0.00 | 94 | 1012.2 |
| 20260504081858 | 41 | 113 | 0.0 | 0.0 | 0.00 | 0.00 | 0.00 | 92 | 1012.7 |
| 20260504081355 | 42 | 121 | 0.0 | 0.0 | 0.00 | 0.00 | 0.00 | 92 | 1012.4 |
| 20260504080850 | 41 | 107 | 0.0 | 0.0 | 0.00 | 0.00 | 0.00 | 92 | 1012.5 |
| 20260504080348 | 41 | 104 | 0.0 | 0.0 | 0.00 | 0.00 | 0.00 | 93 | 1012.4 |
| 20260504070315 | 42 | 127 | 0.0 | 0.0 | 0.00 | 0.00 | 0.00 | 93 | 1012.4 |
| 20260504060236 | 43 | 88 | 0.0 | 0.0 | 0.00 | 0.00 | 0.00 | 89 | 1012.8 |
| 20260504050704 | 44 | 98 | 0.0 | 0.0 | 0.00 | 0.00 | 0.00 | 89 | 1012.5 |
| 20260504050200 | 44 | 98 | 0.0 | 0.0 | 0.00 | 0.00 | 0.00 | 88 | 1012.5 |
| 20260504045657 | 44 | 98 | 0.0 | 0.0 | 0.00 | 0.00 | 0.00 | 88 | 1012.6 |
| 20260504045152 | 44 | 98 | 0.0 | 0.0 | 0.00 | 0.00 | 0.00 | 87 | 1012.5 |
| 20260504044650 | 44 | 98 | 0.0 | 0.0 | 0.00 | 0.00 | 0.00 | 87 | 1012.4 |
| 20260504044147 | 44 | 98 | 0.0 | 0.0 | 0.00 | 0.00 | 0.00 | 87 | 1012.4 |
| 20260504043644 | 45 | 98 | 0.0 | 0.0 | 0.00 | 0.00 | 0.00 | 87 | 1012.4 |
| 20260504043141 | 45 | 98 | 0.0 | 0.0 | 0.00 | 0.00 | 0.00 | 86 | 1012.4 |
| 20260504042639 | 45 | 98 | 0.0 | 0.0 | 0.00 | 0.00 | 0.00 | 86 | 1012.4 |
| 20260504042135 | 45 | 98 | 0.0 | 0.0 | 0.00 | 0.00 | 0.00 | 86 | 1012.4 |
| 20260504041631 | 46 | 98 | 0.0 | 0.0 | 0.00 | 0.00 | 0.00 | 85 | 1012.3 |
| 20260504041127 | 46 | 108 | 0.0 | 0.0 | 0.00 | 0.00 | 0.00 | 84 | 1012.2 |
| 20260504040624 | 46 | 102 | 0.0 | 0.0 | 0.00 | 0.00 | 0.00 | 84 | 1012.4 |
| 20260504040121 | 46 | 98 | 0.0 | 0.0 | 0.00 | 0.00 | 0.00 | 82 | 1012.2 |
| 20260504035618 | 46 | 104 | 0.0 | 0.0 | 0.00 | 0.00 | 0.00 | 82 | 1012.1 |
| 20260504035114 | 46 | 101 | 0.0 | 0.0 | 0.00 | 0.00 | 0.00 | 82 | 1012.1 |
| 20260504034612 | 46 | 107 | 0.0 | 0.0 | 0.00 | 0.00 | 0.00 | 83 | 1012.3 |
| 20260504034109 | 47 | 107 | 0.0 | 0.0 | 0.00 | 0.00 | 0.00 | 82 | 1012.2 |
| 20260504033607 | 47 | 107 | 0.0 | 0.0 | 0.00 | 0.00 | 0.00 | 81 | 1012.3 |
| 20260504033104 | 47 | 107 | 0.0 | 0.0 | 0.00 | 0.00 | 0.00 | 81 | 1012.4 |
| 20260504032601 | 48 | 107 | 0.0 | 0.0 | 0.00 | 0.00 | 0.00 | 79 | 1012.0 |
| 20260504032058 | 48 | 107 | 0.0 | 0.0 | 0.00 | 0.00 | 0.00 | 79 | 1012.0 |
| 20260504031555 | 48 | 109 | 0.0 | 0.0 | 0.00 | 0.00 | 0.00 | 80 | 1011.9 |
| 20260504031051 | 48 | 101 | 0.0 | 0.0 | 0.00 | 0.00 | 0.00 | 79 | 1012.2 |
| 20260504030548 | 48 | 100 | 0.0 | 0.0 | 0.00 | 0.00 | 0.00 | 78 | 1012.2 |
| 20260504030044 | 48 | 100 | 0.0 | 0.0 | 0.00 | 0.00 | 0.00 | 78 | 1012.0 |
| 20260504025542 | 48 | 116 | 0.0 | 0.0 | 0.00 | 0.00 | 0.00 | 78 | 1012.0 |
| 20260504025038 | 48 | 117 | 0.0 | 0.0 | 0.00 | 0.00 | 0.00 | 79 | 1012.0 |
| 20260504024535 | 48 | 117 | 0.0 | 0.0 | 0.00 | 0.00 | 0.00 | 77 | 1012.0 |
| 20260504024032 | 48 | 117 | 0.0 | 0.0 | 0.00 | 0.00 | 0.00 | 77 | 1012.1 |
| 20260504023529 | 49 | 117 | 0.0 | 0.0 | 0.00 | 0.00 | 0.00 | 76 | 1012.1 |
| 20260504023025 | 49 | 117 | 0.0 | 0.0 | 0.00 | 0.00 | 0.00 | 75 | 1012.0 |
| 20260504022520 | 49 | 116 | 0.0 | 0.0 | 0.00 | 0.00 | 0.00 | 75 | 1012.1 |
| 20260504022017 | 50 | 115 | 0.0 | 0.0 | 0.00 | 0.00 | 0.00 | 73 | 1011.8 |
| 20260504021515 | 50 | 107 | 0.0 | 0.0 | 0.00 | 0.00 | 0.00 | 73 | 1011.6 |
| 20260504021012 | 50 | 106 | 0.0 | 0.0 | 0.00 | 0.00 | 0.00 | 72 | 1011.6 |
| 20260504020508 | 50 | 117 | 0.0 | 0.0 | 0.00 | 0.00 | 0.00 | 73 | 1011.6 |
| 20260504020005 | 51 | 103 | 0.0 | 0.0 | 0.00 | 0.00 | 0.00 | 73 | 1011.6 |
| 20260504015501 | 51 | 98 | 0.0 | 0.0 | 0.00 | 0.00 | 0.00 | 72 | 1011.7 |
| 20260504014957 | 51 | 98 | 0.0 | 0.0 | 0.00 | 0.00 | 0.00 | 71 | 1011.7 |
| 20260504014453 | 52 | 98 | 0.0 | 0.0 | 0.00 | 0.00 | 0.00 | 68 | 1011.6 |
| 20260504013950 | 52 | 94 | 0.0 | 0.0 | 0.00 | 0.00 | 0.00 | 68 | 1011.7 |
| 20260504013449 | 52 | 276 | 0.0 | 0.0 | 0.00 | 0.00 | 0.00 | 69 | 1011.7 |
| 20260504012944 | 53 | 278 | 0.0 | 0.0 | 0.00 | 0.00 | 0.00 | 65 | 1011.6 |
| 20260504012443 | 53 | 278 | 0.0 | 0.0 | 0.00 | 0.00 | 0.00 | 64 | 1011.5 |
| 20260504011940 | 53 | 278 | 0.0 | 0.0 | 0.00 | 0.00 | 0.00 | 64 | 1011.7 |
| 20260504011436 | 54 | 278 | 0.0 | 0.0 | 0.00 | 0.00 | 0.00 | 63 | 1011.7 |
| 20260504010932 | 55 | 278 | 0.0 | 0.0 | 0.00 | 0.00 | 0.00 | 62 | 1011.6 |
| 20260504010429 | 55 | 278 | 0.0 | 0.0 | 0.00 | 0.00 | 0.00 | 60 | 1011.7 |
| 20260504005925 | 56 | 278 | 0.0 | 0.0 | 0.00 | 0.00 | 0.00 | 58 | 1011.6 |
| 20260504005422 | 58 | 280 | 0.0 | 0.0 | 0.00 | 0.00 | 0.00 | 64 | 1011.5 |
| 20260504004919 | 59 | 299 | 0.9 | 0.9 | 0.00 | 0.00 | 0.00 | 51 | 1011.5 |
| 20260504004417 | 59 | 261 | 0.9 | 0.9 | 0.00 | 0.00 | 0.00 | 52 | 1011.2 |
| 20260504003914 | 59 | 261 | 0.0 | 0.0 | 0.00 | 0.00 | 0.00 | 52 | 1011.2 |
| 20260504003410 | 59 | 305 | 0.9 | 1.7 | 0.00 | 0.00 | 0.00 | 51 | 1011.3 |
| 20260504002907 | 59 | 247 | 1.7 | 1.7 | 0.00 | 0.00 | 0.00 | 49 | 1011.3 |
| 20260504002404 | 58 | 235 | 0.0 | 0.0 | 0.00 | 0.00 | 0.00 | 53 | 1011.2 |
| 20260504001901 | 58 | 215 | 0.0 | 0.0 | 0.00 | 0.00 | 0.00 | 51 | 1011.0 |
| 20260504001359 | 60 | 218 | 0.0 | 0.0 | 0.00 | 0.00 | 0.00 | 55 | 1010.8 |
| 20260504000855 | 60 | 250 | 0.0 | 0.0 | 0.00 | 0.00 | 0.00 | 50 | 1011.0 |
| 20260504000354 | 60 | 77 | 0.0 | 1.7 | 0.00 | 0.00 | 0.00 | 49 | 1011.1 |
| 20260503235849 | 60 | 159 | 0.0 | 0.0 | 0.00 | 0.00 | 0.00 | 52 | 1011.1 |
| 20260503235347 | 62 | 192 | 0.0 | 0.0 | 0.00 | 0.00 | 0.00 | 47 | 1010.9 |
| 20260503234844 | 62 | 278 | 0.9 | 0.9 | 0.00 | 0.00 | 0.00 | 46 | 1011.1 |
| 20260503234342 | 63 | 217 | 0.9 | 0.9 | 0.00 | 0.00 | 0.00 | 45 | 1011.2 |
| 20260503233840 | 64 | 232 | 0.9 | 1.7 | 0.00 | 0.00 | 0.00 | 45 | 1011.0 |
| 20260503233336 | 64 | 338 | 1.7 | 1.7 | 0.00 | 0.00 | 0.00 | 42 | 1011.1 |
| 20260503232832 | 64 | 173 | 0.9 | 1.7 | 0.00 | 0.00 | 0.00 | 43 | 1011.0 |
| 20260503232330 | 64 | 100 | 0.9 | 1.7 | 0.00 | 0.00 | 0.00 | 43 | 1011.2 |
| 20260503231827 | 64 | 271 | 0.9 | 0.9 | 0.00 | 0.00 | 0.00 | 42 | 1011.2 |
| 20260503231324 | 65 | 207 | 0.0 | 0.0 | 0.00 | 0.00 | 0.00 | 41 | 1011.3 |
| 20260503230820 | 65 | 284 | 1.7 | 1.7 | 0.00 | 0.00 | 0.00 | 41 | 1011.3 |
| 20260503230317 | 65 | 221 | 1.7 | 1.7 | 0.00 | 0.00 | 0.00 | 40 | 1011.2 |
| 20260503225815 | 66 | 291 | 1.7 | 2.6 | 0.00 | 0.00 | 0.00 | 40 | 1011.2 |
| 20260503225310 | 65 | 179 | 0.0 | 0.0 | 0.00 | 0.00 | 0.00 | 43 | 1011.5 |
| 20260503224807 | 65 | 314 | 2.6 | 4.3 | 0.00 | 0.00 | 0.00 | 38 | 1011.5 |
| 20260503224305 | 65 | 303 | 0.9 | 1.7 | 0.00 | 0.00 | 0.00 | 39 | 1011.6 |
| 20260503223802 | 66 | 308 | 1.7 | 1.7 | 0.00 | 0.00 | 0.00 | 38 | 1011.5 |
| 20260503223300 | 66 | 234 | 0.0 | 0.9 | 0.00 | 0.00 | 0.00 | 38 | 1011.2 |
| 20260503222755 | 66 | 193 | 0.9 | 1.7 | 0.00 | 0.00 | 0.00 | 39 | 1011.5 |
| 20260503222254 | 66 | 126 | 0.9 | 0.9 | 0.00 | 0.00 | 0.00 | 37 | 1011.4 |
| 20260503221752 | 66 | 0 | 2.6 | 2.6 | 0.00 | 0.00 | 0.00 | 37 | 1011.6 |
| 20260503221249 | 66 | 259 | 2.6 | 4.3 | 0.00 | 0.00 | 0.00 | 37 | 1011.7 |
| 20260503220746 | 66 | 291 | 3.5 | 4.3 | 0.00 | 0.00 | 0.00 | 37 | 1011.8 |
| 20260503220243 | 66 | 199 | 1.7 | 2.6 | 0.00 | 0.00 | 0.00 | 38 | 1011.6 |
| 20260503215739 | 66 | 289 | 3.5 | 4.3 | 0.00 | 0.00 | 0.00 | 38 | 1011.8 |
| 20260503215236 | 65 | 284 | 2.6 | 2.6 | 0.00 | 0.00 | 0.00 | 39 | 1011.6 |
| 20260503214735 | 66 | 299 | 1.7 | 2.6 | 0.00 | 0.00 | 0.00 | 37 | 1011.8 |